Total_Precipitation_Accumulation
1.64 1.63 1.69 1.87 1.86 1.91 1.89 1.62 1.38 1.43 1.51 1.44 1.27 1.26 1.35 1.38 1.41 1.55 1.67 1.59 1.55 1.69 1.90 2.01 2.07 2.02 1.97 2.01 2.02 2.04 2.02 1.95 1.89 1.80 1.60 1.46 1.38 1.36 1.38 1.39 1.38 1.29 1.23
1.94 1.98 1.98 2.00 1.98 2.13 2.15 1.89 1.71 1.80 1.75 1.69 1.49 1.41 1.41 1.49 1.50 1.60 1.66 1.61 1.45 1.41 1.60 1.91 2.11 2.19 2.22 2.26 2.18 2.08 2.06 2.00 1.97 1.87 1.74 1.58 1.49 1.44 1.39 1.40 1.43 1.38 1.29
2.27 2.37 2.39 2.28 2.19 2.15 2.20 2.12 2.00 1.97 1.91 1.72 1.62 1.61 1.61 1.50 1.44 1.60 1.72 1.75 1.64 1.55 1.63 1.72 1.86 2.06 2.36 2.50 2.42 2.31 2.23 2.17 2.06 1.96 1.89 1.77 1.63 1.55 1.48 1.44 1.45 1.42 1.35
2.36 2.60 2.65 2.44 2.29 2.20 2.30 2.38 2.26 2.22 2.19 2.11 1.86 1.65 1.66 1.64 1.55 1.59 1.63 1.71 1.84 1.76 1.78 1.73 1.75 1.88 2.09 2.28 2.43 2.47 2.44 2.36 2.25 2.15 2.07 1.96 1.87 1.70 1.56 1.51 1.48 1.45 1.43
2.44 2.63 2.74 2.70 2.44 2.40 2.47 2.40 2.59 2.49 2.47 2.29 1.96 1.75 1.58 1.48 1.52 1.53 1.56 1.62 1.66 1.69 1.76 1.79 1.82 1.87 2.02 2.14 2.26 2.39 2.42 2.40 2.30 2.15 2.11 2.11 2.00 1.83 1.71 1.67 1.60 1.53 1.50
2.55 2.75 2.80 2.84 2.69 2.70 2.81 2.79 2.80 2.63 2.43 2.30 2.00 1.81 1.57 1.35 1.33 1.40 1.41 1.41 1.38 1.41 1.51 1.58 1.70 1.69 1.80 1.90 2.10 2.35 2.59 2.63 2.49 2.31 2.23 2.16 2.05 1.87 1.76 1.76 1.72 1.66 1.61
3.18 3.31 3.23 3.15 2.96 2.90 2.92 2.85 2.73 2.64 2.50 2.47 2.34 2.04 1.66 1.34 1.20 1.16 1.24 1.27 1.23 1.24 1.31 1.42 1.49 1.53 1.59 1.63 1.71 1.95 2.34 2.63 2.59 2.45 2.36 2.26 2.16 2.04 1.95 1.88 1.86 1.81 1.72
3.79 3.74 3.66 3.41 3.15 2.98 2.84 2.72 2.61 2.51 2.37 2.35 2.36 2.29 1.95 1.64 1.31 1.09 1.19 1.23 1.21 1.26 1.25 1.22 1.25 1.29 1.28 1.40 1.54 1.70 1.95 2.11 2.28 2.43 2.43 2.30 2.20 2.14 2.11 2.08 2.05 1.99 1.91
3.64 3.55 3.48 3.33 3.12 2.93 2.78 2.76 2.71 2.63 2.49 2.45 2.44 2.50 2.31 1.90 1.50 1.24 1.14 1.16 1.21 1.26 1.28 1.26 1.20 1.23 1.27 1.32 1.39 1.59 1.77 1.80 1.92 2.11 2.30 2.29 2.21 2.20 2.18 2.20 2.21 2.18 2.14
3.39 3.27 3.28 3.21 3.04 2.84 2.66 2.52 2.49 2.54 2.60 2.48 2.36 2.19 2.07 1.87 1.75 1.52 1.32 1.22 1.19 1.19 1.21 1.21 1.20 1.23 1.31 1.42 1.56 1.64 1.66 1.63 1.66 1.76 1.85 1.95 2.03 2.10 2.15 2.11 2.15 2.24 2.30
3.14 2.98 2.93 2.83 2.65 2.49 2.35 2.22 2.14 2.17 2.24 2.27 2.25 2.18 2.09 1.94 1.79 1.65 1.51 1.39 1.32 1.22 1.17 1.18 1.20 1.26 1.32 1.37 1.49 1.54 1.57 1.51 1.53 1.56 1.61 1.71 1.79 1.89 2.04 2.15 2.24 2.34 2.45
2.96 2.70 2.46 2.37 2.31 2.13 1.91 1.83 1.77 1.76 1.81 1.90 2.01 2.01 1.92 1.86 1.81 1.80 1.68 1.54 1.48 1.41 1.31 1.28 1.24 1.25 1.31 1.30 1.30 1.47 1.43 1.39 1.40 1.42 1.48 1.54 1.56 1.61 1.73 1.91 2.14 2.33 2.48
2.51 2.28 2.08 1.96 1.88 1.82 1.70 1.60 1.54 1.44 1.43 1.51 1.57 1.70 1.72 1.66 1.62 1.70 1.79 1.74 1.59 1.45 1.32 1.25 1.14 1.09 1.12 1.24 1.35 1.37 1.26 1.22 1.18 1.17 1.23 1.38 1.46 1.48 1.45 1.55 1.69 1.91 2.09
2.04 1.83 1.70 1.55 1.40 1.29 1.24 1.25 1.30 1.29 1.27 1.31 1.32 1.44 1.53 1.53 1.55 1.57 1.62 1.77 1.76 1.56 1.39 1.26 1.14 1.06 1.07 1.13 1.24 1.14 1.12 1.09 1.03 1.06 1.09 1.18 1.28 1.42 1.41 1.34 1.31 1.38 1.51
1.55 1.43 1.33 1.28 1.19 1.10 1.06 1.05 1.08 1.15 1.16 1.16 1.18 1.25 1.32 1.32 1.35 1.42 1.50 1.62 1.74 1.68 1.52 1.31 1.29 1.24 1.20 1.18 1.27 1.13 1.15 1.12 1.07 1.14 1.15 1.19 1.26 1.41 1.46 1.36 1.25 1.16 1.13
1.27 1.17 1.10 1.08 1.05 1.01 1.01 1.07 1.08 1.09 1.10 1.07 1.04 1.03 1.04 1.03 1.08 1.13 1.25 1.38 1.50 1.58 1.52 1.26 1.21 1.29 1.27 1.16 1.33 1.22 1.18 1.15 1.11 1.32 1.47 1.41 1.39 1.56 1.69 1.64 1.45 1.31 1.24
1.05 1.01 0.94 0.90 0.92 0.96 0.95 0.97 0.96 0.93 0.88 0.84 0.83 0.84 0.88 0.91 0.97 0.98 1.02 1.17 1.37 1.52 1.56 1.30 1.15 1.22 1.35 1.31 1.35 1.30 1.21 1.16 1.24 1.62 1.83 2.03 1.79 1.69 1.79 1.75 1.63 1.43 1.29
0.94 0.93 0.86 0.77 0.73 0.73 0.73 0.73 0.74 0.77 0.78 0.75 0.78 0.82 0.83 0.85 0.85 0.91 0.98 1.05 1.20 1.38 1.54 1.48 1.28 1.29 1.36 1.37 1.42 1.42 1.26 1.11 1.17 1.62 1.91 2.23 2.20 1.96 1.97 1.81 1.63 1.42 1.29
0.84 0.78 0.76 0.73 0.64 0.62 0.59 0.57 0.59 0.65 0.67 0.67 0.71 0.77 0.81 0.91 0.90 0.91 0.97 0.99 1.08 1.20 1.45 1.53 1.41 1.39 1.46 1.51 1.62 1.52 1.36 1.31 1.10 1.36 1.78 2.13 2.30 2.34 2.41 2.26 1.94 1.58 1.34
0.78 0.76 0.75 0.66 0.57 0.51 0.49 0.48 0.49 0.53 0.55 0.59 0.67 0.73 0.76 0.87 0.94 0.98 0.98 0.99 1.03 1.16 1.33 1.51 1.50 1.49 1.55 1.63 1.68 1.65 1.50 1.35 1.22 1.20 1.65 2.11 2.45 2.50 2.66 2.74 2.44 1.95 1.54
0.70 0.71 0.72 0.66 0.58 0.49 0.43 0.44 0.45 0.49 0.57 0.62 0.64 0.65 0.68 0.78 0.86 0.85 0.80 0.83 0.98 1.19 1.29 1.46 1.53 1.51 1.51 1.62 1.61 1.44 1.38 1.31 1.18 1.13 1.35 1.74 2.42 2.75 2.81 2.86 2.74 2.23 1.75
0.71 0.67 0.66 0.64 0.59 0.47 0.47 0.47 0.45 0.50 0.57 0.61 0.62 0.63 0.61 0.61 0.62 0.64 0.70 0.75 0.86 1.11 1.44 1.64 1.61 1.54 1.42 1.40 1.43 1.38 1.40 1.42 1.36 1.09 1.07 1.37 1.94 2.69 2.94 2.89 2.79 2.20 1.66
0.68 0.62 0.60 0.63 0.61 0.52 0.49 0.45 0.45 0.50 0.59 0.64 0.67 0.67 0.56 0.49 0.58 0.64 0.69 0.74 0.87 1.03 1.31 1.65 1.73 1.52 1.44 1.40 1.43 1.43 1.48 1.55 1.43 1.11 1.11 1.38 1.74 2.40 2.60 2.59 2.48 1.90 1.47
0.64 0.64 0.64 0.65 0.64 0.52 0.47 0.45 0.44 0.50 0.60 0.61 0.62 0.66 0.68 0.64 0.61 0.65 0.71 0.81 0.95 1.09 1.19 1.29 1.59 1.42 1.20 1.20 1.28 1.33 1.42 1.46 1.37 1.19 1.18 1.46 1.74 2.18 2.19 2.23 2.15 1.70 1.36
0.63 0.60 0.58 0.60 0.64 0.60 0.52 0.45 0.41 0.49 0.56 0.57 0.55 0.55 0.56 0.58 0.63 0.72 0.87 1.09 1.22 1.34 1.28 1.41 1.57 1.52 1.36 1.26 1.16 1.22 1.42 1.48 1.44 1.28 1.22 1.44 1.66 1.79 1.90 1.96 1.76 1.59 1.32
0.61 0.57 0.53 0.55 0.59 0.57 0.44 0.36 0.36 0.43 0.51 0.56 0.60 0.60 0.54 0.51 0.62 0.77 1.01 1.30 1.44 1.51 1.38 1.48 1.72 1.77 1.59 1.55 1.50 1.39 1.50 1.54 1.49 1.44 1.21 1.28 1.47 1.50 1.73 1.71 1.55 1.43 1.35